iso_date,epoch_date,Year,Hour,Min,DOY,POS_DOY,Lat,Lon,BP,Ts,Ta,has_bp,has_ts,has_ta,BuoyID,Buoy_Type,Buoy_Owner,Logistics,Hemisphere
2020-09-15T17:01:58Z,1600189318,2020,17,2,259.7097,259.7097,89.079,107.6228,1004.4,-2.4,-2.9,yes,yes,yes,300234066087160,Snow_Buoy,AWI,MOSAiC,North
2020-09-15T18:02:00Z,1600192921,2020,18,2,259.7514,259.7514,89.0782,107.9032,1004.4,-2.5,-2.9,yes,yes,yes,300234066087160,Snow_Buoy,AWI,MOSAiC,North
2020-09-15T19:02:03Z,1600196524,2020,19,2,259.7931,259.7931,89.0762,108.1228,1004.6,-2.7,-3.0,yes,yes,yes,300234066087160,Snow_Buoy,AWI,MOSAiC,North
2020-09-15T20:01:58Z,1600200118,2020,20,2,259.8347,259.8347,89.0734,108.2344,1004.7,-2.5,-2.7,yes,yes,yes,300234066087160,Snow_Buoy,AWI,MOSAiC,North
2020-09-15T21:02:00Z,1600203721,2020,21,2,259.8764,259.8764,89.0706,108.2132,1004.9,-2.3,-2.5,yes,yes,yes,300234066087160,Snow_Buoy,AWI,MOSAiC,North
2020-09-15T22:02:03Z,1600207324,2020,22,2,259.9181,259.9181,89.0696,108.1108,1004.7,-2.5,-2.6,yes,yes,yes,300234066087160,Snow_Buoy,AWI,MOSAiC,North
2020-09-15T23:01:58Z,1600210918,2020,23,2,259.9597,259.9597,89.0698,107.9716,1004.7,-2.7,-2.5,yes,yes,yes,300234066087160,Snow_Buoy,AWI,MOSAiC,North
2020-09-16T00:02:00Z,1600214521,2020,0,2,260.0014,260.0014,89.072,107.857,1004.9,-2.4,-2.6,yes,yes,yes,300234066087160,Snow_Buoy,AWI,MOSAiC,North
2020-09-16T01:02:03Z,1600218124,2020,1,2,260.0431,260.0431,89.076,107.8316,1004.8,-2.6,-2.8,yes,yes,yes,300234066087160,Snow_Buoy,AWI,MOSAiC,North
2020-09-16T02:01:58Z,1600221718,2020,2,2,260.0847,260.0847,89.0808,107.939,1004.8,-2.6,-2.7,yes,yes,yes,300234066087160,Snow_Buoy,AWI,MOSAiC,North
2020-09-16T03:02:00Z,1600225321,2020,3,2,260.1264,260.1264,89.085,108.1458,1004.8,-2.5,-2.4,yes,yes,yes,300234066087160,Snow_Buoy,AWI,MOSAiC,North
2020-09-16T04:02:03Z,1600228924,2020,4,2,260.1681,260.1681,89.0884,108.4482,1004.8,-2.3,-2.4,yes,yes,yes,300234066087160,Snow_Buoy,AWI,MOSAiC,North
2020-09-16T05:01:58Z,1600232518,2020,5,2,260.2097,260.2097,89.0904,108.8228,1004.8,-2.2,-2.3,yes,yes,yes,300234066087160,Snow_Buoy,AWI,MOSAiC,North
2020-09-16T06:02:00Z,1600236121,2020,6,2,260.2514,260.2514,89.0906,109.1808,1004.5,-2.1,-2.3,yes,yes,yes,300234066087160,Snow_Buoy,AWI,MOSAiC,North
2020-09-16T07:02:03Z,1600239724,2020,7,2,260.2931,260.2931,89.087,109.4338,1004.6,-2.0,-2.0,yes,yes,yes,300234066087160,Snow_Buoy,AWI,MOSAiC,North
2020-09-16T08:01:58Z,1600243318,2020,8,2,260.3347,260.3347,89.0862,109.499,1004.4,-2.2,-2.5,yes,yes,yes,300234066087160,Snow_Buoy,AWI,MOSAiC,North
2020-09-16T09:02:00Z,1600246921,2020,9,2,260.3764,260.3764,89.082,109.4214,1004.5,-2.3,-2.6,yes,yes,yes,300234066087160,Snow_Buoy,AWI,MOSAiC,North
2020-09-16T10:02:03Z,1600250524,2020,10,2,260.4181,260.4181,89.078,109.223,1004.7,-2.3,-2.5,yes,yes,yes,300234066087160,Snow_Buoy,AWI,MOSAiC,North
2020-09-16T11:01:58Z,1600254118,2020,11,2,260.4597,260.4597,89.075,108.9794,1004.9,-2.2,-2.1,yes,yes,yes,300234066087160,Snow_Buoy,AWI,MOSAiC,North
2020-09-16T12:03:01Z,1600257781,2020,12,3,260.5021,260.5021,89.0734,108.7346,1005.0,-2.1,-2.1,yes,yes,yes,300234066087160,Snow_Buoy,AWI,MOSAiC,North
2020-09-16T13:02:03Z,1600261324,2020,13,2,260.5431,260.5431,89.073,108.5888,1005.1,-2.2,-2.2,yes,yes,yes,300234066087160,Snow_Buoy,AWI,MOSAiC,North
2020-09-16T14:01:58Z,1600264918,2020,14,2,260.5847,260.5847,89.0732,108.5842,1005.3,-2.2,-2.4,yes,yes,yes,300234066087160,Snow_Buoy,AWI,MOSAiC,North
2020-09-16T15:03:01Z,1600268581,2020,15,3,260.6271,260.6271,89.073,108.7074,1005.4,-2.2,-2.5,yes,yes,yes,300234066087160,Snow_Buoy,AWI,MOSAiC,North
2020-09-16T16:02:03Z,1600272124,2020,16,2,260.6681,260.6681,89.0718,108.9438,1005.6,-2.6,-2.5,yes,yes,yes,300234066087160,Snow_Buoy,AWI,MOSAiC,North
2020-09-16T17:02:58Z,1600275779,2020,17,3,260.7104,260.7104,89.0686,109.2458,1005.8,-2.4,-2.8,yes,yes,yes,300234066087160,Snow_Buoy,AWI,MOSAiC,North
2020-09-16T18:03:01Z,1600279381,2020,18,3,260.7521,260.7521,89.0632,109.5064,1006.2,-2.6,-2.8,yes,yes,yes,300234066087160,Snow_Buoy,AWI,MOSAiC,North
2020-09-16T19:02:03Z,1600282924,2020,19,2,260.7931,260.7931,89.0564,109.6724,1006.3,-2.7,-2.8,yes,yes,yes,300234066087160,Snow_Buoy,AWI,MOSAiC,North
2020-09-16T20:01:58Z,1600286518,2020,20,2,260.8347,260.8347,89.0494,109.6892,1006.8,-2.7,-2.8,yes,yes,yes,300234066087160,Snow_Buoy,AWI,MOSAiC,North
2020-09-16T21:03:01Z,1600290181,2020,21,3,260.8771,260.8771,89.042,109.55,1007.4,-2.7,-2.8,yes,yes,yes,300234066087160,Snow_Buoy,AWI,MOSAiC,North
2020-09-16T22:03:04Z,1600293784,2020,22,3,260.9188,260.9188,89.036,109.291,1007.8,-2.8,-2.9,yes,yes,yes,300234066087160,Snow_Buoy,AWI,MOSAiC,North
2020-09-16T23:01:58Z,1600297318,2020,23,2,260.9597,260.9597,89.032,108.9984,1008.4,-2.5,-2.5,yes,yes,yes,300234066087160,Snow_Buoy,AWI,MOSAiC,North
2020-09-17T00:02:00Z,1600300921,2020,0,2,261.0014,261.0014,89.0294,108.7186,1008.9,-2.6,-2.7,yes,yes,yes,300234066087160,Snow_Buoy,AWI,MOSAiC,North
2020-09-17T01:03:04Z,1600304584,2020,1,3,261.0438,261.0438,89.0286,108.459,1009.4,-2.7,-2.9,yes,yes,yes,300234066087160,Snow_Buoy,AWI,MOSAiC,North
2020-09-17T02:01:58Z,1600308118,2020,2,2,261.0847,261.0847,89.0284,108.2802,1010.0,-2.7,-2.9,yes,yes,yes,300234066087160,Snow_Buoy,AWI,MOSAiC,North
2020-09-17T03:02:00Z,1600311721,2020,3,2,261.1264,261.1264,89.0288,108.1912,1010.3,-3.0,-3.4,yes,yes,yes,300234066087160,Snow_Buoy,AWI,MOSAiC,North
2020-09-17T04:02:03Z,1600315324,2020,4,2,261.1681,261.1681,89.0286,108.152,1010.7,-3.0,-3.1,yes,yes,yes,300234066087160,Snow_Buoy,AWI,MOSAiC,North
2020-09-17T04:59:57Z,1600318797,2020,5,0,261.2083,261.2083,89.0262,108.1996,1011.1,-2.9,-3.0,yes,yes,yes,300234066087160,Snow_Buoy,AWI,MOSAiC,North
2020-09-17T06:00:00Z,1600322400,2020,6,0,261.25,261.25,89.0248,108.2174,1013.2,0.1,-3.2,yes,yes,yes,300234066087160,Snow_Buoy,AWI,MOSAiC,North
2020-09-17T07:00:02Z,1600326003,2020,7,0,261.2917,261.2917,89.0222,108.183,1012.6,0.3,-3.5,yes,yes,yes,300234066087160,Snow_Buoy,AWI,MOSAiC,North
2020-09-17T07:59:57Z,1600329597,2020,8,0,261.3333,261.3333,89.0194,108.0742,1012.9,0.4,-3.9,yes,yes,yes,300234066087160,Snow_Buoy,AWI,MOSAiC,North
2020-09-17T09:00:00Z,1600333200,2020,9,0,261.375,261.375,89.0168,107.8832,1013.3,0.5,-4.0,yes,yes,yes,300234066087160,Snow_Buoy,AWI,MOSAiC,North
2020-09-17T10:00:02Z,1600336803,2020,10,0,261.4167,261.4167,89.0152,107.632,1013.4,0.6,-4.1,yes,yes,yes,300234066087160,Snow_Buoy,AWI,MOSAiC,North
2020-09-17T10:59:57Z,1600340397,2020,11,0,261.4583,261.4583,89.0148,107.3772,1013.5,0.7,-4.4,yes,yes,yes,300234066087160,Snow_Buoy,AWI,MOSAiC,North
2020-09-17T12:00:00Z,1600344000,2020,12,0,261.5,261.5,89.016,107.1644,1013.7,0.8,-4.3,yes,yes,yes,300234066087160,Snow_Buoy,AWI,MOSAiC,North
2020-09-17T13:00:02Z,1600347603,2020,13,0,261.5417,261.5417,89.0184,107.0264,1013.7,0.8,-4.5,yes,yes,yes,300234066087160,Snow_Buoy,AWI,MOSAiC,North
2020-09-17T13:59:57Z,1600351197,2020,14,0,261.5833,261.5833,89.0216,106.978,1013.8,0.9,-4.6,yes,yes,yes,300234066087160,Snow_Buoy,AWI,MOSAiC,North
2020-09-17T15:00:00Z,1600354800,2020,15,0,261.625,261.625,89.0252,107.0054,1013.9,0.9,-4.8,yes,yes,yes,300234066087160,Snow_Buoy,AWI,MOSAiC,North
2020-09-17T16:00:02Z,1600358403,2020,16,0,261.6667,261.6667,89.0284,107.1076,1013.8,0.9,-4.9,yes,yes,yes,300234066087160,Snow_Buoy,AWI,MOSAiC,North
2020-09-17T16:59:57Z,1600361997,2020,17,0,261.7083,261.7083,89.0312,107.256,1013.8,1.0,-4.8,yes,yes,yes,300234066087160,Snow_Buoy,AWI,MOSAiC,North
2020-09-17T18:00:00Z,1600365600,2020,18,0,261.75,261.75,89.033,107.4128,1013.9,1.0,-4.8,yes,yes,yes,300234066087160,Snow_Buoy,AWI,MOSAiC,North
2020-09-17T19:00:02Z,1600369203,2020,19,0,261.7917,261.7917,89.0342,107.524,1014.1,1.0,-5.1,yes,yes,yes,300234066087160,Snow_Buoy,AWI,MOSAiC,North
2020-09-17T19:59:57Z,1600372797,2020,20,0,261.8333,261.8333,89.035,107.5752,1014.2,1.0,-5.5,yes,yes,yes,300234066087160,Snow_Buoy,AWI,MOSAiC,North
2020-09-17T21:00:00Z,1600376400,2020,21,0,261.875,261.875,89.0356,107.549,1014.2,1.0,-5.7,yes,yes,yes,300234066087160,Snow_Buoy,AWI,MOSAiC,North
2020-09-17T22:00:02Z,1600380003,2020,22,0,261.9167,261.9167,89.037,107.4592,1014.1,1.0,-6.4,yes,yes,yes,300234066087160,Snow_Buoy,AWI,MOSAiC,North
2020-09-17T22:59:57Z,1600383597,2020,23,0,261.9583,261.9583,89.0394,107.3354,1014.1,1.0,-6.8,yes,yes,yes,300234066087160,Snow_Buoy,AWI,MOSAiC,North
2020-09-18T00:00:00Z,1600387200,2020,0,0,262.0,262.0,89.0426,107.2058,1013.9,1.0,-6.4,yes,yes,yes,300234066087160,Snow_Buoy,AWI,MOSAiC,North
2020-09-18T01:00:02Z,1600390803,2020,1,0,262.0417,262.0417,89.0472,107.1046,1013.7,1.0,-7.0,yes,yes,yes,300234066087160,Snow_Buoy,AWI,MOSAiC,North
2020-09-18T01:59:57Z,1600394397,2020,2,0,262.0833,262.0833,89.0518,107.0714,1013.6,1.0,-7.1,yes,yes,yes,300234066087160,Snow_Buoy,AWI,MOSAiC,North
2020-09-18T03:00:00Z,1600398000,2020,3,0,262.125,262.125,89.0566,107.0936,1013.2,1.0,-7.1,yes,yes,yes,300234066087160,Snow_Buoy,AWI,MOSAiC,North
2020-09-18T04:00:02Z,1600401603,2020,4,0,262.1667,262.1667,89.061,107.166,1012.9,1.0,-7.0,yes,yes,yes,300234066087160,Snow_Buoy,AWI,MOSAiC,North
2020-09-18T04:59:57Z,1600405197,2020,5,0,262.2083,262.2083,89.0644,107.2708,1012.9,1.0,-7.6,yes,yes,yes,300234066087160,Snow_Buoy,AWI,MOSAiC,North
2020-09-18T06:00:00Z,1600408800,2020,6,0,262.25,262.25,89.0666,107.372,1012.9,1.0,-7.5,yes,yes,yes,300234066087160,Snow_Buoy,AWI,MOSAiC,North
2020-09-18T07:00:02Z,1600412403,2020,7,0,262.2917,262.2917,89.0682,107.4322,1012.8,0.9,-7.3,yes,yes,yes,300234066087160,Snow_Buoy,AWI,MOSAiC,North
2020-09-18T07:59:57Z,1600415997,2020,8,0,262.3333,262.3333,89.0692,107.4176,1012.4,0.9,-7.8,yes,yes,yes,300234066087160,Snow_Buoy,AWI,MOSAiC,North
2020-09-18T09:00:00Z,1600419600,2020,9,0,262.375,262.375,89.07,107.3174,1012.4,0.9,-6.8,yes,yes,yes,300234066087160,Snow_Buoy,AWI,MOSAiC,North
2020-09-18T10:00:02Z,1600423203,2020,10,0,262.4167,262.4167,89.0718,107.1606,1012.1,0.9,-6.6,yes,yes,yes,300234066087160,Snow_Buoy,AWI,MOSAiC,North
2020-09-18T10:59:57Z,1600426797,2020,11,0,262.4583,262.4583,89.0748,106.9858,1011.8,0.9,-6.5,yes,yes,yes,300234066087160,Snow_Buoy,AWI,MOSAiC,North
2020-09-18T12:00:00Z,1600430400,2020,12,0,262.5,262.5,89.079,106.8418,1011.4,0.9,-6.4,yes,yes,yes,300234066087160,Snow_Buoy,AWI,MOSAiC,North
2020-09-18T13:00:02Z,1600434003,2020,13,0,262.5417,262.5417,89.0838,106.7602,1010.9,1.0,-6.3,yes,yes,yes,300234066087160,Snow_Buoy,AWI,MOSAiC,North
2020-09-18T14:00:57Z,1600437658,2020,14,1,262.584,262.584,89.0892,106.7708,1010.6,1.0,-6.2,yes,yes,yes,300234066087160,Snow_Buoy,AWI,MOSAiC,North
2020-09-18T15:00:00Z,1600441200,2020,15,0,262.625,262.625,89.0944,106.8706,1010.3,1.0,-6.1,yes,yes,yes,300234066087160,Snow_Buoy,AWI,MOSAiC,North
2020-09-18T16:00:02Z,1600444803,2020,16,0,262.6667,262.6667,89.099,107.0378,1009.7,1.0,-7.1,yes,yes,yes,300234066087160,Snow_Buoy,AWI,MOSAiC,North
2020-09-18T16:59:57Z,1600448397,2020,17,0,262.7083,262.7083,89.1024,107.2274,1009.3,0.9,-8.3,yes,yes,yes,300234066087160,Snow_Buoy,AWI,MOSAiC,North
2020-09-18T18:00:00Z,1600452000,2020,18,0,262.75,262.75,89.104,107.4006,1009.0,0.9,-9.1,yes,yes,yes,300234066087160,Snow_Buoy,AWI,MOSAiC,North
2020-09-18T19:00:02Z,1600455603,2020,19,0,262.7917,262.7917,89.1052,107.5486,1008.7,0.9,-9.0,yes,yes,yes,300234066087160,Snow_Buoy,AWI,MOSAiC,North
2020-09-18T19:59:57Z,1600459197,2020,20,0,262.8333,262.8333,89.107,107.6296,1008.4,0.9,-7.0,yes,yes,yes,300234066087160,Snow_Buoy,AWI,MOSAiC,North
2020-09-18T21:00:00Z,1600462800,2020,21,0,262.875,262.875,89.1094,107.6378,1008.0,0.9,-5.2,yes,yes,yes,300234066087160,Snow_Buoy,AWI,MOSAiC,North
2020-09-18T22:00:02Z,1600466403,2020,22,0,262.9167,262.9167,89.113,107.6018,1007.6,0.9,-4.6,yes,yes,yes,300234066087160,Snow_Buoy,AWI,MOSAiC,North
2020-09-18T22:59:57Z,1600469997,2020,23,0,262.9583,262.9583,89.1184,107.593,1007.1,1.0,-3.4,yes,yes,yes,300234066087160,Snow_Buoy,AWI,MOSAiC,North
2020-09-19T00:00:00Z,1600473600,2020,0,0,263.0,263.0,89.1248,107.6748,1006.4,1.0,-2.9,yes,yes,yes,300234066087160,Snow_Buoy,AWI,MOSAiC,North
2020-09-19T01:00:02Z,1600477203,2020,1,0,263.0417,263.0417,89.1318,107.8304,1005.9,1.0,-2.7,yes,yes,yes,300234066087160,Snow_Buoy,AWI,MOSAiC,North
2020-09-19T01:59:57Z,1600480797,2020,2,0,263.0833,263.0833,89.139,108.0738,1005.6,1.0,-2.5,yes,yes,yes,300234066087160,Snow_Buoy,AWI,MOSAiC,North
2020-09-19T03:00:00Z,1600484400,2020,3,0,263.125,263.125,89.1452,108.4348,1005.4,1.0,-2.1,yes,yes,yes,300234066087160,Snow_Buoy,AWI,MOSAiC,North
2020-09-19T04:00:02Z,1600488003,2020,4,0,263.1667,263.1667,89.15,108.907,1005.3,1.0,-1.5,yes,yes,yes,300234066087160,Snow_Buoy,AWI,MOSAiC,North
2020-09-19T04:59:57Z,1600491597,2020,5,0,263.2083,263.2083,89.1526,109.4382,1005.1,1.0,-1.2,yes,yes,yes,300234066087160,Snow_Buoy,AWI,MOSAiC,North
2020-09-19T06:00:00Z,1600495200,2020,6,0,263.25,263.25,89.1534,109.9858,1005.0,1.0,-1.1,yes,yes,yes,300234066087160,Snow_Buoy,AWI,MOSAiC,North
2020-09-19T07:00:02Z,1600498803,2020,7,0,263.2917,263.2917,89.1514,110.449,1005.0,1.0,-1.0,yes,yes,yes,300234066087160,Snow_Buoy,AWI,MOSAiC,North
2020-09-19T07:59:57Z,1600502397,2020,8,0,263.3333,263.3333,89.1474,110.788,1005.1,1.0,-3.7,yes,yes,yes,300234066087160,Snow_Buoy,AWI,MOSAiC,North
2020-09-19T09:00:00Z,1600506000,2020,9,0,263.375,263.375,89.1428,110.8732,1005.4,1.0,-5.6,yes,yes,yes,300234066087160,Snow_Buoy,AWI,MOSAiC,North
2020-09-19T10:00:02Z,1600509603,2020,10,0,263.4167,263.4167,89.1392,110.7514,1005.8,1.0,-6.7,yes,yes,yes,300234066087160,Snow_Buoy,AWI,MOSAiC,North
2020-09-19T10:59:57Z,1600513197,2020,11,0,263.4583,263.4583,89.1378,110.511,1005.9,1.0,-5.4,yes,yes,yes,300234066087160,Snow_Buoy,AWI,MOSAiC,North
2020-09-19T12:00:00Z,1600516800,2020,12,0,263.5,263.5,89.1386,110.2452,1005.8,1.0,-7.4,yes,yes,yes,300234066087160,Snow_Buoy,AWI,MOSAiC,North
2020-09-19T13:00:02Z,1600520403,2020,13,0,263.5417,263.5417,89.1416,110.0414,1006.1,1.0,-6.1,yes,yes,yes,300234066087160,Snow_Buoy,AWI,MOSAiC,North
2020-09-19T13:59:57Z,1600523997,2020,14,0,263.5833,263.5833,89.146,110.0548,1005.9,1.0,-3.5,yes,yes,yes,300234066087160,Snow_Buoy,AWI,MOSAiC,North
2020-09-19T15:00:00Z,1600527600,2020,15,0,263.625,263.625,89.15,110.3266,1005.8,1.0,-2.1,yes,yes,yes,300234066087160,Snow_Buoy,AWI,MOSAiC,North
2020-09-19T16:00:02Z,1600531203,2020,16,0,263.6667,263.6667,89.152,110.7494,1005.6,1.0,-2.0,yes,yes,yes,300234066087160,Snow_Buoy,AWI,MOSAiC,North
2020-09-19T16:59:57Z,1600534797,2020,17,0,263.7083,263.7083,89.1516,111.2068,1005.5,1.0,-1.2,yes,yes,yes,300234066087160,Snow_Buoy,AWI,MOSAiC,North
2020-09-19T18:00:00Z,1600538400,2020,18,0,263.75,263.75,89.1492,111.608,1005.5,1.0,-1.3,yes,yes,yes,300234066087160,Snow_Buoy,AWI,MOSAiC,North
2020-09-19T19:00:02Z,1600542003,2020,19,0,263.7917,263.7917,89.146,111.8758,1005.4,1.1,-1.3,yes,yes,yes,300234066087160,Snow_Buoy,AWI,MOSAiC,North
2020-09-19T19:59:57Z,1600545597,2020,20,0,263.8333,263.8333,89.1416,112.0066,1005.2,1.1,-1.5,yes,yes,yes,300234066087160,Snow_Buoy,AWI,MOSAiC,North
2020-09-19T21:00:00Z,1600549200,2020,21,0,263.875,263.875,89.1376,111.9792,1005.3,1.1,-1.8,yes,yes,yes,300234066087160,Snow_Buoy,AWI,MOSAiC,North
2020-09-19T22:00:02Z,1600552803,2020,22,0,263.9167,263.9167,89.1346,111.7702,1005.3,1.1,-2.2,yes,yes,yes,300234066087160,Snow_Buoy,AWI,MOSAiC,North
2020-09-19T22:59:57Z,1600556397,2020,23,0,263.9583,263.9583,89.1338,111.471,1005.3,1.1,-2.4,yes,yes,yes,300234066087160,Snow_Buoy,AWI,MOSAiC,North
2020-09-20T00:00:00Z,1600560000,2020,0,0,264.0,264.0,89.1354,111.195,1005.3,1.1,-4.3,yes,yes,yes,300234066087160,Snow_Buoy,AWI,MOSAiC,North
2020-09-20T01:00:02Z,1600563603,2020,1,0,264.0417,264.0417,89.1384,110.9718,1005.3,1.1,-4.7,yes,yes,yes,300234066087160,Snow_Buoy,AWI,MOSAiC,North
2020-09-20T01:59:57Z,1600567197,2020,2,0,264.0833,264.0833,89.1414,110.869,1005.3,1.1,-5.5,yes,yes,yes,300234066087160,Snow_Buoy,AWI,MOSAiC,North
2020-09-20T03:00:00Z,1600570800,2020,3,0,264.125,264.125,89.1438,110.921,1005.4,1.1,-5.9,yes,yes,yes,300234066087160,Snow_Buoy,AWI,MOSAiC,North
2020-09-20T04:00:02Z,1600574403,2020,4,0,264.1667,264.1667,89.1446,111.086,1005.6,1.1,-5.7,yes,yes,yes,300234066087160,Snow_Buoy,AWI,MOSAiC,North
2020-09-20T05:00:57Z,1600578058,2020,5,1,264.209,264.209,89.144,111.2666,1005.8,1.0,-6.8,yes,yes,yes,300234066087160,Snow_Buoy,AWI,MOSAiC,North
2020-09-20T06:00:00Z,1600581600,2020,6,0,264.25,264.25,89.1422,111.4086,1005.8,1.0,-7.7,yes,yes,yes,300234066087160,Snow_Buoy,AWI,MOSAiC,North
2020-09-20T07:00:02Z,1600585203,2020,7,0,264.2917,264.2917,89.1392,111.4596,1006.1,1.0,-8.2,yes,yes,yes,300234066087160,Snow_Buoy,AWI,MOSAiC,North
2020-09-20T07:59:57Z,1600588797,2020,8,0,264.3333,264.3333,89.136,111.3938,1006.2,1.0,-8.5,yes,yes,yes,300234066087160,Snow_Buoy,AWI,MOSAiC,North
2020-09-20T09:00:00Z,1600592400,2020,9,0,264.375,264.375,89.1332,111.2158,1006.5,1.0,-9.1,yes,yes,yes,300234066087160,Snow_Buoy,AWI,MOSAiC,North
2020-09-20T10:00:02Z,1600596003,2020,10,0,264.4167,264.4167,89.1314,110.9526,1006.8,0.9,-9.3,yes,yes,yes,300234066087160,Snow_Buoy,AWI,MOSAiC,North
2020-09-20T10:59:57Z,1600599597,2020,11,0,264.4583,264.4583,89.1312,110.6686,1007.0,0.9,-9.4,yes,yes,yes,300234066087160,Snow_Buoy,AWI,MOSAiC,North
2020-09-20T12:00:00Z,1600603200,2020,12,0,264.5,264.5,89.1324,110.4138,1007.2,0.9,-9.6,yes,yes,yes,300234066087160,Snow_Buoy,AWI,MOSAiC,North
2020-09-20T13:00:02Z,1600606803,2020,13,0,264.5417,264.5417,89.1346,110.2274,1007.4,0.9,-9.8,yes,yes,yes,300234066087160,Snow_Buoy,AWI,MOSAiC,North
2020-09-20T13:59:57Z,1600610397,2020,14,0,264.5833,264.5833,89.1372,110.119,1007.6,0.9,-9.7,yes,yes,yes,300234066087160,Snow_Buoy,AWI,MOSAiC,North
2020-09-20T15:00:00Z,1600614000,2020,15,0,264.625,264.625,89.1396,110.0962,1008.0,0.9,-10.8,yes,yes,yes,300234066087160,Snow_Buoy,AWI,MOSAiC,North
2020-09-20T16:00:02Z,1600617603,2020,16,0,264.6667,264.6667,89.1414,110.1524,1008.3,0.9,-11.9,yes,yes,yes,300234066087160,Snow_Buoy,AWI,MOSAiC,North
2020-09-20T16:59:57Z,1600621197,2020,17,0,264.7083,264.7083,89.1426,110.2582,1008.3,0.9,-11.8,yes,yes,yes,300234066087160,Snow_Buoy,AWI,MOSAiC,North
2020-09-20T18:00:00Z,1600624800,2020,18,0,264.75,264.75,89.1424,110.371,1008.5,0.9,-11.9,yes,yes,yes,300234066087160,Snow_Buoy,AWI,MOSAiC,North
2020-09-20T19:00:02Z,1600628403,2020,19,0,264.7917,264.7917,89.1412,110.432,1008.8,0.8,-12.3,yes,yes,yes,300234066087160,Snow_Buoy,AWI,MOSAiC,North
2020-09-20T19:59:57Z,1600631997,2020,20,0,264.8333,264.8333,89.1394,110.4024,1009.2,0.8,-12.7,yes,yes,yes,300234066087160,Snow_Buoy,AWI,MOSAiC,North
2020-09-20T21:00:00Z,1600635600,2020,21,0,264.875,264.875,89.1378,110.2782,1009.5,0.8,-12.7,yes,yes,yes,300234066087160,Snow_Buoy,AWI,MOSAiC,North
2020-09-20T22:00:02Z,1600639203,2020,22,0,264.9167,264.9167,89.137,110.0702,1009.9,0.8,-12.6,yes,yes,yes,300234066087160,Snow_Buoy,AWI,MOSAiC,North
2020-09-20T22:59:57Z,1600642797,2020,23,0,264.9583,264.9583,89.1374,109.8278,1010.2,0.8,-11.3,yes,yes,yes,300234066087160,Snow_Buoy,AWI,MOSAiC,North
2020-09-21T00:00:00Z,1600646400,2020,0,0,265.0,265.0,89.1388,109.633,1010.1,0.9,-9.2,yes,yes,yes,300234066087160,Snow_Buoy,AWI,MOSAiC,North
2020-09-21T01:00:02Z,1600650003,2020,1,0,265.0417,265.0417,89.141,109.5022,1010.0,0.9,-9.1,yes,yes,yes,300234066087160,Snow_Buoy,AWI,MOSAiC,North
2020-09-21T01:59:57Z,1600653597,2020,2,0,265.0833,265.0833,89.1438,109.4408,1010.1,0.9,-8.8,yes,yes,yes,300234066087160,Snow_Buoy,AWI,MOSAiC,North
2020-09-21T03:00:00Z,1600657200,2020,3,0,265.125,265.125,89.1466,109.4538,1010.2,0.9,-8.5,yes,yes,yes,300234066087160,Snow_Buoy,AWI,MOSAiC,North
2020-09-21T04:00:02Z,1600660803,2020,4,0,265.1667,265.1667,89.149,109.543,1010.3,0.9,-8.6,yes,yes,yes,300234066087160,Snow_Buoy,AWI,MOSAiC,North
2020-09-21T04:59:57Z,1600664397,2020,5,0,265.2083,265.2083,89.1504,109.6726,1010.7,0.9,-8.5,yes,yes,yes,300234066087160,Snow_Buoy,AWI,MOSAiC,North
2020-09-21T06:00:00Z,1600668000,2020,6,0,265.25,265.25,89.1506,109.7982,1010.7,0.9,-8.1,yes,yes,yes,300234066087160,Snow_Buoy,AWI,MOSAiC,North
2020-09-21T07:00:02Z,1600671603,2020,7,0,265.2917,265.2917,89.1498,109.8842,1010.7,0.9,-8.6,yes,yes,yes,300234066087160,Snow_Buoy,AWI,MOSAiC,North
2020-09-21T07:59:57Z,1600675197,2020,8,0,265.3333,265.3333,89.1486,109.9038,1011.0,0.9,-8.4,yes,yes,yes,300234066087160,Snow_Buoy,AWI,MOSAiC,North
2020-09-21T09:00:00Z,1600678800,2020,9,0,265.375,265.375,89.1476,109.851,1011.1,0.9,-7.7,yes,yes,yes,300234066087160,Snow_Buoy,AWI,MOSAiC,North
2020-09-21T10:00:02Z,1600682403,2020,10,0,265.4167,265.4167,89.1468,109.7402,1011.2,0.9,-7.2,yes,yes,yes,300234066087160,Snow_Buoy,AWI,MOSAiC,North
2020-09-21T10:59:57Z,1600685997,2020,11,0,265.4583,265.4583,89.1468,109.593,1011.4,0.9,-7.0,yes,yes,yes,300234066087160,Snow_Buoy,AWI,MOSAiC,North
2020-09-21T12:00:00Z,1600689600,2020,12,0,265.5,265.5,89.1482,109.4346,1011.5,0.9,-6.8,yes,yes,yes,300234066087160,Snow_Buoy,AWI,MOSAiC,North
2020-09-21T13:00:02Z,1600693203,2020,13,0,265.5417,265.5417,89.1504,109.2942,1011.6,0.9,-6.8,yes,yes,yes,300234066087160,Snow_Buoy,AWI,MOSAiC,North
2020-09-21T13:59:57Z,1600696797,2020,14,0,265.5833,265.5833,89.1532,109.206,1011.8,0.9,-6.6,yes,yes,yes,300234066087160,Snow_Buoy,AWI,MOSAiC,North
2020-09-21T15:00:00Z,1600700400,2020,15,0,265.625,265.625,89.1562,109.1846,1011.9,0.9,-6.8,yes,yes,yes,300234066087160,Snow_Buoy,AWI,MOSAiC,North
2020-09-21T16:00:02Z,1600704003,2020,16,0,265.6667,265.6667,89.159,109.2314,1012.1,0.9,-6.6,yes,yes,yes,300234066087160,Snow_Buoy,AWI,MOSAiC,North
2020-09-21T17:00:57Z,1600707658,2020,17,1,265.709,265.709,89.1606,109.3238,1012.2,1.0,-6.4,yes,yes,yes,300234066087160,Snow_Buoy,AWI,MOSAiC,North
2020-09-21T18:00:00Z,1600711200,2020,18,0,265.75,265.75,89.1612,109.4184,1012.3,1.0,-6.4,yes,yes,yes,300234066087160,Snow_Buoy,AWI,MOSAiC,North
2020-09-21T19:00:02Z,1600714803,2020,19,0,265.7917,265.7917,89.1606,109.4726,1012.5,1.0,-6.3,yes,yes,yes,300234066087160,Snow_Buoy,AWI,MOSAiC,North
2020-09-21T20:00:57Z,1600718458,2020,20,1,265.834,265.834,89.1596,109.4542,1012.7,1.0,-6.4,yes,yes,yes,300234066087160,Snow_Buoy,AWI,MOSAiC,North
2020-09-21T21:00:00Z,1600722000,2020,21,0,265.875,265.875,89.1584,109.345,1012.7,1.0,-6.5,yes,yes,yes,300234066087160,Snow_Buoy,AWI,MOSAiC,North
2020-09-21T22:00:02Z,1600725603,2020,22,0,265.9167,265.9167,89.1578,109.1638,1012.9,1.0,-6.3,yes,yes,yes,300234066087160,Snow_Buoy,AWI,MOSAiC,North
2020-09-21T23:00:57Z,1600729258,2020,23,1,265.959,265.959,89.1584,108.927,1013.1,1.0,-6.3,yes,yes,yes,300234066087160,Snow_Buoy,AWI,MOSAiC,North
2020-09-22T00:00:00Z,1600732800,2020,0,0,266.0,266.0,89.1602,108.6774,1013.4,1.0,-6.3,yes,yes,yes,300234066087160,Snow_Buoy,AWI,MOSAiC,North
2020-09-22T01:00:02Z,1600736403,2020,1,0,266.0417,266.0417,89.1632,108.4458,1013.5,1.0,-6.2,yes,yes,yes,300234066087160,Snow_Buoy,AWI,MOSAiC,North
2020-09-22T02:00:57Z,1600740058,2020,2,1,266.084,266.084,89.167,108.2732,1013.9,1.0,-6.1,yes,yes,yes,300234066087160,Snow_Buoy,AWI,MOSAiC,North
2020-09-22T03:00:00Z,1600743600,2020,3,0,266.125,266.125,89.1706,108.1774,1014.2,1.0,-6.1,yes,yes,yes,300234066087160,Snow_Buoy,AWI,MOSAiC,North
2020-09-22T04:00:02Z,1600747203,2020,4,0,266.1667,266.1667,89.1736,108.15,1014.3,1.0,-6.1,yes,yes,yes,300234066087160,Snow_Buoy,AWI,MOSAiC,North
2020-09-22T05:00:57Z,1600750858,2020,5,1,266.209,266.209,89.1754,108.1646,1014.7,1.0,-5.9,yes,yes,yes,300234066087160,Snow_Buoy,AWI,MOSAiC,North
2020-09-22T06:00:00Z,1600754400,2020,6,0,266.25,266.25,89.1762,108.1778,1014.8,1.0,-5.9,yes,yes,yes,300234066087160,Snow_Buoy,AWI,MOSAiC,North
2020-09-22T07:00:02Z,1600758003,2020,7,0,266.2917,266.2917,89.176,108.1536,1015.2,1.0,-5.6,yes,yes,yes,300234066087160,Snow_Buoy,AWI,MOSAiC,North
2020-09-22T07:59:57Z,1600761597,2020,8,0,266.3333,266.3333,89.1754,108.0546,1015.4,1.0,-5.5,yes,yes,yes,300234066087160,Snow_Buoy,AWI,MOSAiC,North
2020-09-22T09:00:00Z,1600765200,2020,9,0,266.375,266.375,89.1748,107.8616,1015.8,1.0,-5.3,yes,yes,yes,300234066087160,Snow_Buoy,AWI,MOSAiC,North
2020-09-22T10:00:02Z,1600768803,2020,10,0,266.4167,266.4167,89.1748,107.5764,1016.3,1.0,-5.0,yes,yes,yes,300234066087160,Snow_Buoy,AWI,MOSAiC,North
2020-09-22T10:59:57Z,1600772397,2020,11,0,266.4583,266.4583,89.176,107.2434,1016.6,1.0,-4.9,yes,yes,yes,300234066087160,Snow_Buoy,AWI,MOSAiC,North